Theta_e
351 352 350 352 352 351 351 353 352 351 350 350 350 351 353 352 352 351 345 343 344 346 349 351 350 348 347 345 346 350 344 340 341 342 352 352 349 348 350 345 347 349 351
351 351 349 352 353 352 350 351 350 350 351 350 351 351 352 350 350 348 349 345 346 348 349 348 344 343 348 346 347 349 348 340 344 347 350 351 347 346 344 347 349 350 352
351 352 352 352 351 351 348 351 353 352 350 350 351 351 351 351 351 351 350 348 348 352 352 350 353 351 351 348 349 349 348 343 349 349 348 347 347 348 345 347 345 348 350
349 351 352 350 352 352 353 351 353 352 351 352 352 352 351 351 351 351 350 350 351 351 352 352 351 352 352 352 352 352 348 351 351 343 346 345 348 349 352 351 351 350 350
348 350 353 351 351 350 353 353 352 352 352 351 352 350 350 352 351 344 347 348 351 352 353 352 351 351 352 351 352 352 352 351 345 346 347 348 348 347 351 349 346 348 346
347 348 351 353 353 352 351 353 351 352 352 352 352 353 351 347 350 348 351 351 352 350 352 349 353 352 350 350 351 351 352 351 346 345 347 345 350 344 351 351 349 346 348
347 347 349 349 352 353 352 352 352 352 353 348 351 351 347 352 350 349 351 351 352 351 350 351 353 349 350 348 351 350 351 344 347 346 347 345 348 344 350 350 349 349 348
347 348 348 348 351 352 352 352 352 352 353 353 349 351 351 351 347 351 352 351 347 349 351 351 351 351 351 348 347 347 350 348 346 348 348 348 347 345 351 350 349 348 345
347 347 348 348 349 351 352 351 351 352 349 348 348 351 351 352 350 348 352 351 349 349 350 346 347 346 349 348 347 345 346 344 350 349 348 347 346 342 347 350 345 350 349
346 347 348 347 350 351 353 351 354 352 349 351 350 349 348 339 342 343 339 345 350 350 347 349 346 344 343 343 345 344 344 344 350 350 349 349 346 343 347 348 349 345 347
346 345 348 352 349 353 349 349 346 349 352 343 341 345 346 349 349 349 347 341 342 351 349 348 350 347 347 341 341 343 341 347 348 347 347 348 346 344 344 345 344 344 348
347 346 347 348 347 349 345 349 349 350 352 352 351 351 352 352 352 351 348 344 346 348 348 348 351 352 344 346 349 346 347 345 345 345 347 345 344 344 342 343 343 342 342
347 347 347 349 349 346 345 347 347 349 350 351 352 352 351 352 353 353 352 353 353 352 349 348 351 352 352 346 346 346 346 341 342 341 345 345 342 343 343 343 343 344 343
346 346 347 348 350 347 348 346 346 347 349 350 351 352 352 352 353 352 351 351 353 352 353 352 353 353 352 352 347 347 349 347 344 344 339 336 343 339 343 342 342 343 343
346 346 347 347 350 350 352 347 347 349 349 350 350 350 352 353 353 353 353 352 353 353 353 353 353 352 352 352 352 350 347 350 349 346 340 342 341 343 341 341 340 341 344
343 344 345 346 347 350 350 350 349 349 350 351 352 352 353 354 355 355 354 353 353 353 354 353 353 353 352 351 349 351 348 349 350 350 347 347 342 344 344 343 337 338 346
341 342 344 346 346 350 349 349 349 349 349 351 351 353 355 356 356 357 355 352 352 354 353 353 351 350 348 347 347 348 351 351 352 352 350 348 350 348 345 342 336 342 340
341 340 343 343 347 349 348 349 348 350 351 352 352 352 354 355 358 357 354 353 352 355 352 350 350 347 348 347 346 349 348 353 352 352 351 350 350 351 349 346 344 344 344
345 342 342 343 343 346 349 350 350 351 353 353 353 354 356 358 358 356 353 352 355 353 350 348 348 347 344 346 347 348 350 352 351 350 350 352 353 352 349 351 346 345 345
349 348 345 344 343 345 348 349 349 351 353 353 354 355 358 356 358 355 352 354 355 351 347 347 348 346 347 346 348 351 352 351 352 353 353 353 353 353 352 352 352 350 346
351 349 351 345 346 349 350 349 350 351 352 353 354 358 357 357 357 355 354 354 353 350 348 347 345 343 344 344 349 350 350 349 348 348 347 348 349 350 350 350 349 351 350
351 352 352 352 348 351 350 350 351 352 352 352 353 357 357 357 356 354 356 354 352 346 347 345 341 340 341 343 343 348 351 345 345 347 348 347 347 344 344 345 348 350 351
349 352 352 354 353 353 351 352 354 355 356 355 354 354 356 355 354 355 357 354 351 345 342 340 340 341 338 340 343 346 352 354 345 345 344 342 341 341 341 343 343 344 345
348 349 352 353 355 356 354 352 354 353 352 352 353 351 355 354 355 358 357 354 348 343 342 341 340 338 341 336 338 340 343 347 345 347 343 341 339 339 339 338 338 338 339
345 347 349 352 355 355 356 354 354 355 351 353 353 354 355 356 358 357 354 351 347 343 344 345 344 343 340 337 334 337 341 339 340 339 341 341 340 337 336 336 335 334 335
346 347 349 352 355 356 356 357 355 354 354 353 354 354 349 351 356 355 352 350 347 345 345 346 345 344 341 338 335 335 337 338 338 337 336 339 340 341 336 333 330 329 329
Wind_Speed
11 13 16 17 16 19 18 18 19 19 19 19 19 16 13 13 12 11 11 11 11 10 9 8 8 7 7 6 6 8 7 9 10 11 12 12 12 11 11 13 14 12 14
17 15 16 17 18 18 18 17 19 19 18 18 16 13 12 11 10 10 9 9 10 10 8 7 6 7 6 7 7 7 6 10 9 9 11 12 10 9 11 10 7 12 13
19 18 15 16 18 17 18 17 16 16 15 14 12 11 11 9 8 9 7 8 8 9 8 8 8 9 7 7 7 7 8 10 10 9 11 6 9 9 9 10 11 12 12
20 19 16 16 17 17 15 15 14 13 12 10 8 9 11 8 7 7 6 7 7 7 8 9 9 10 9 9 8 9 10 10 10 9 7 6 9 8 8 8 10 10 11
19 19 17 17 16 15 13 13 13 10 10 8 7 8 8 8 6 6 6 7 8 8 9 9 9 10 10 9 8 9 10 9 8 7 7 5 4 7 8 9 8 10 11
19 18 18 17 15 13 12 11 11 9 9 7 6 6 7 7 7 7 7 8 8 8 9 9 9 9 9 9 8 8 8 8 8 6 6 5 3 8 8 8 9 9 9
19 17 15 16 15 13 11 10 10 8 7 6 6 6 7 7 6 6 6 6 6 7 8 7 7 7 7 8 8 7 7 8 6 6 5 4 4 8 7 7 8 8 8
18 18 16 15 15 13 11 9 8 8 6 5 6 6 5 5 4 5 5 6 6 5 6 6 5 5 6 6 6 6 6 5 4 3 3 4 4 6 6 7 7 7 9
16 16 16 14 12 11 10 8 7 6 6 4 5 4 4 4 4 3 4 4 4 4 4 3 2 3 3 5 5 4 3 3 2 2 3 3 5 5 6 6 7 8 8
15 15 14 13 11 10 8 7 8 6 6 5 4 3 2 3 3 3 2 2 2 1 2 2 1 2 3 4 5 5 4 2 3 3 4 4 6 6 7 8 8 8 8
14 15 15 14 12 10 9 8 6 5 4 3 3 3 2 1 2 1 1 2 1 2 1 2 3 4 4 4 5 6 5 7 4 5 3 4 7 6 6 7 9 9 10
17 15 15 14 13 11 8 7 7 5 6 4 4 4 2 1 1 1 1 2 3 2 3 3 5 6 5 7 5 4 7 7 7 7 3 2 1 5 4 6 7 8 9
17 15 13 13 13 11 9 8 7 6 5 4 4 3 2 1 0 1 1 2 4 5 5 7 5 8 5 9 8 7 8 10 9 9 3 4 3 6 7 6 6 8 10
16 15 14 13 12 11 10 9 7 6 6 5 4 4 3 1 1 2 3 4 4 5 6 7 8 7 7 10 11 11 10 12 11 10 10 11 5 7 8 8 10 9 11
16 16 15 14 12 11 10 8 8 7 6 5 4 4 4 2 2 3 4 5 5 5 5 6 7 7 6 7 8 12 12 13 14 11 11 10 7 12 12 11 11 12 11
15 16 16 15 14 13 11 9 8 7 6 5 5 4 4 3 3 4 5 5 5 4 4 5 5 6 6 6 7 9 12 12 13 12 10 10 12 12 16 18 18 18 15
16 16 16 16 16 14 12 10 9 8 7 6 5 5 6 6 5 4 4 5 4 4 5 4 4 5 5 6 8 9 10 10 10 9 8 9 8 10 17 20 21 13 24
15 16 16 16 16 15 13 11 9 8 7 6 6 6 8 8 7 5 4 4 3 3 3 4 4 5 5 7 8 10 6 4 5 6 7 7 8 8 12 17 20 16 9
16 16 16 16 16 14 13 11 10 8 8 7 6 5 5 6 6 4 3 2 2 2 3 4 4 6 6 5 7 5 2 1 3 3 3 5 4 5 4 8 11 15 17
16 15 16 17 15 14 12 11 10 9 8 7 6 4 4 4 6 3 2 1 1 2 3 3 4 5 4 6 5 4 1 2 1 2 0 1 1 2 2 4 5 8 12
18 17 17 18 17 16 15 13 12 11 9 8 7 5 5 6 6 4 2 2 1 1 2 2 2 2 2 4 2 2 6 7 6 5 4 4 4 6 7 7 6 4 3
21 20 19 19 20 19 16 15 12 10 9 9 9 8 8 8 7 5 5 3 3 1 1 2 2 2 1 4 4 3 2 6 7 6 6 7 6 7 8 9 9 9 10
22 22 23 23 21 21 18 15 12 10 9 9 10 10 8 8 5 6 5 4 3 2 1 2 3 3 2 1 3 4 1 2 10 3 5 6 6 7 7 9 10 11 12
24 22 22 22 22 21 21 19 18 15 12 10 8 8 8 8 7 6 6 4 3 2 4 4 4 5 4 2 2 1 3 6 2 5 4 5 7 7 8 8 9 10 12
23 21 20 21 23 23 23 23 19 17 13 10 8 8 8 7 7 7 7 7 5 4 4 4 4 4 4 4 3 2 2 1 2 5 2 8 5 5 5 7 8 9 10
21 20 19 20 23 22 21 21 21 16 15 9 6 7 8 7 7 8 9 7 7 6 5 4 4 4 4 4 3 2 1 3 3 4 3 2 2 4 3 6 8 9 9
Wind_Direction
131 130 123 121 119 119 119 120 114 115 116 111 105 109 107 108 108 106 109 114 119 119 128 137 146 142 133 132 124 129 116 129 107 105 105 105 104 109 117 122 121 126 126
138 135 129 128 128 126 128 125 119 121 114 107 111 112 108 109 111 106 98 100 111 113 123 132 144 147 145 137 131 138 125 137 118 116 117 109 108 113 122 132 121 136 132
139 142 135 132 131 133 135 132 122 118 117 114 113 113 111 113 117 113 110 108 109 104 111 110 107 122 132 121 119 135 136 135 134 131 117 129 116 126 137 134 132 134 133
140 142 144 142 132 131 132 129 128 127 122 117 114 116 109 114 112 113 105 105 114 116 113 106 105 112 118 115 122 130 130 130 135 120 116 125 124 123 132 132 129 135 136
140 141 150 143 142 135 130 133 134 138 131 125 125 113 116 109 106 106 106 118 116 123 113 107 107 114 116 116 124 129 130 130 129 107 127 124 128 146 136 136 136 144 139
144 144 153 145 141 140 144 149 147 146 135 138 128 117 105 110 115 102 102 111 116 112 107 104 111 116 118 122 127 131 134 144 118 134 130 117 99 137 149 145 156 163 153
144 143 147 151 144 146 153 160 150 149 156 132 125 108 104 119 107 114 108 98 102 109 105 108 115 123 123 128 129 133 147 129 127 134 138 121 134 154 156 169 167 167 166
148 148 153 157 158 161 164 166 155 161 149 150 127 112 113 109 109 95 98 97 95 104 99 104 116 127 129 134 132 125 134 161 161 170 181 168 181 167 175 177 181 177 174
154 150 155 160 163 168 168 165 163 156 144 121 119 121 121 111 97 99 111 101 101 103 108 106 116 150 157 147 144 146 139 158 153 170 185 185 223 192 182 199 207 191 188
160 157 158 160 167 165 168 168 161 160 158 149 143 132 171 124 109 82 86 107 113 116 142 143 282 220 211 184 178 196 214 237 225 207 212 216 242 202 198 202 205 196 204
171 168 166 164 165 176 157 179 170 169 175 160 134 155 92 116 102 36 197 317 265 283 285 229 225 239 241 239 227 210 220 241 229 231 232 220 243 208 206 215 211 211 206
175 177 173 169 165 167 164 164 171 174 159 166 189 148 137 132 174 165 235 274 273 273 273 255 238 241 250 253 207 275 226 247 240 245 242 297 312 190 227 236 219 218 219
176 178 177 174 167 168 170 169 169 167 162 170 169 163 162 202 193 345 341 290 312 303 283 265 255 242 243 246 241 247 234 249 248 255 200 282 142 191 220 221 248 234 229
182 181 181 181 179 176 173 172 168 175 179 178 168 178 192 208 267 308 319 308 310 304 290 283 267 257 260 258 254 257 257 265 240 252 252 250 207 212 218 225 238 232 232
185 185 184 185 188 187 186 179 174 176 177 174 173 194 207 229 282 297 309 320 311 302 302 304 271 280 277 268 267 267 260 256 253 244 238 247 228 211 232 224 234 257 249
190 186 186 190 190 191 193 192 188 185 188 191 198 204 223 245 282 302 314 325 314 306 306 312 303 298 302 297 280 272 278 258 243 231 235 251 245 220 214 210 233 254 255
193 188 190 192 192 192 198 202 199 200 196 208 220 230 234 244 265 282 316 324 316 305 314 314 312 305 306 305 291 286 277 264 235 219 236 244 241 231 217 219 234 249 239
193 194 192 194 196 196 196 200 203 211 215 220 232 240 243 245 251 269 303 316 293 304 323 326 324 313 296 314 307 297 297 257 199 216 225 241 237 250 219 225 237 240 246
191 191 197 197 200 200 202 204 205 213 225 232 237 242 235 232 229 243 289 306 317 303 318 324 320 323 322 312 326 324 310 300 193 209 222 254 250 238 237 227 237 235 235
195 195 197 200 201 200 203 208 213 220 231 233 228 232 214 213 206 231 261 253 318 305 316 337 327 342 334 337 329 14 356 171 141 74 67 45 65 358 57 109 171 228 245
203 202 200 201 200 195 200 207 214 220 226 227 230 227 222 208 206 223 201 204 267 300 352 345 316 307 343 348 282 137 91 95 87 88 79 77 70 55 43 36 29 359 309
202 206 207 204 201 201 202 208 217 222 225 227 230 232 223 209 211 201 195 184 173 241 354 348 331 293 282 5 327 188 133 137 92 73 68 65 66 66 60 50 40 29 18
203 205 209 210 204 203 205 204 206 212 223 230 236 235 226 212 217 197 193 189 170 165 73 49 33 359 337 25 13 308 258 119 156 91 84 82 83 73 65 55 44 36 33
206 206 211 212 208 207 205 208 211 216 226 228 232 220 216 209 204 199 186 175 165 141 115 88 58 45 343 359 282 356 340 333 273 171 140 103 76 70 62 55 44 31 29
202 203 208 210 208 206 208 212 214 225 231 230 225 211 213 203 194 184 172 163 160 151 132 112 93 66 39 5 346 308 337 285 327 303 176 159 131 73 65 54 39 29 22
199 200 202 205 206 204 205 212 217 220 224 226 221 212 220 210 187 178 172 167 167 158 147 125 96 70 55 61 51 41 338 324 350 303 285 275 331 109 55 45 37 25 16